Regional Weather Roundup
Issued by NWS

Home | Current Version | Previous Version | Graphics & Text | Print | Product List | Glossary On
Versions: 1 2 3 4 5 6 7 8 9 10 11 12 13 14 15 16 17 18 19 20 21 22 23 24 25 26 27 28 29 30 31 32 33 34 35 36 37 38 39 40 41 42 43 44 45 46 47 48 49 50
000
ASUS43 KLOT 181400
RWRIL

ILLINOIS REGIONAL WEATHER ROUNDUP
NATIONAL WEATHER SERVICE CHICAGO/ROMEOVILLE IL
900 AM CDT FRI APR 18 2014

NOTE: "FAIR" INDICATES FEW OR NO CLOUDS BELOW 12,000 FEET WITH NO
SIGNIFICANT WEATHER AND/OR OBSTRUCTIONS TO VISIBILITY.

* THESE STATIONS ARE NOT UNDER NWS QUALITY CONTROL. THEY ALSO MAY NOT
  REPORT WEATHER SUCH AS PRECIPITATION OR FOG.

ILZ001-002-007-009-015-016-024-181500-
NORTHWEST ILLINOIS

CITY           SKY/WX    TMP DP  RH WIND       PRES   REMARKS
MOLINE         SUNNY     43  34  70 NE6       30.36R
STERLING*      SUNNY     43  34  70 NE6       30.36R
$$

ILZ003-004-008-010-011-017-018-181500-
NORTH CENTRAL ILLINOIS

CITY           SKY/WX    TMP DP  RH WIND       PRES   REMARKS
ROCKFORD       MOSUNNY   43  33  68 NE8       30.37R
$$

ILZ005-006-012>014-019>023-181500-
NORTHEAST ILLINOIS

CITY           SKY/WX    TMP DP  RH WIND       PRES   REMARKS
CHICAGO-OHARE  MOSUNNY   46  34  61 NE8       30.33R
CHICAGO-MIDWAY MOSUNNY   47  36  65 NE10      30.33R
AURORA         SUNNY     45  38  76 NE7       30.33R HAZE
WAUKEGAN       SUNNY     42  34  73 N13       30.33R
DUPAGE AIRPORT SUNNY     47  37  68 VRB6      30.32S
WHEELING       SUNNY     46  36  68 N8        30.34S
NORTHERLY ISL    N/A     42  35  76 N12         N/A
$$

LMZ740>746-181500-
SOUTHERN LAKE MICHIGAN

STATION/POSITION SKY/WX   TEMP    WIND        PRES    VSBY  WAVE
                          AIR SEA DIR/SP/G                  HT/PER
                          (F)     (DEG/KT/KT) (MB)    (MI)  (FT/S)
WAUKEGAN HARBOR            40      10/ 17/ 21 1028.4R
HARRISON CRIB              39     350/ 15/ 17   N/A
BURNHAM HARBOR             42     350/ 13       N/A
CALUMET HARBOR             42     340/ 11/ 17 1027.6R
MICHIGAN CITY              40     360/  4/  4   N/A
$$

ILZ025>027-034>036-040-047-049-050-058-095>099-181500-
WEST-CENTRAL ILLINOIS

CITY           SKY/WX    TMP DP  RH WIND       PRES   REMARKS
QUINCY         SUNNY     48  38  68 NE7       30.33S
$$

ILZ028>032-037-038-041>044-048-051>054-059>061-181500-
CENTRAL ILLINOIS

CITY           SKY/WX    TMP DP  RH WIND       PRES   REMARKS
DECATUR        SUNNY     53  40  61 N8        30.32R
PEORIA         SUNNY     50  37  61 N3        30.34S
SPRINGFIELD    SUNNY     54  38  54 NE8       30.33R
TAYLORVILLE    NOT AVBL
$$

ILZ033-039-045-046-055>057-062-063-181500-
EAST-CENTRAL ILLINOIS

CITY           SKY/WX    TMP DP  RH WIND       PRES   REMARKS
CHAMPAIGN      SUNNY     54  40  59 N9        30.31R
MATTOON        SUNNY     53  42  66 NE8       30.30R
$$

ILZ079-100>102-181500-
SOUTHWEST ILLINOIS

CITY           SKY/WX    TMP DP  RH WIND       PRES   REMARKS
BELLEVILLE     SUNNY     55  42  62 N6        30.30S
CAHOKIA*       SUNNY     54  41  61 NE6       30.32R
$$

ILZ064>066-069>071-074>076-080>082-084>086-088>090-092>094-181500-
SOUTH-CENTRAL ILLINOIS

CITY           SKY/WX    TMP DP  RH WIND       PRES   REMARKS
CARBONDALE     MOSUNNY   55  44  66 NW6       30.29S
MARION         PTSUNNY   57  45  62 CALM      30.30R
MT. VERNON     SUNNY     55  37  50 CALM      30.29S
$$

ILZ067-068-072-073-078-083-087-091-181500-
SOUTHEAST ILLINOIS

CITY           SKY/WX    TMP DP  RH WIND       PRES   REMARKS
ROBINSON*      SUNNY     56  47  72 CALM      30.29S
$$

ABBREVIATIONS USED IN REMARKS
   TC - TEMPERATURE IN CELSIUS
  WCI - WIND CHILL INDEX
   HX - HEAT INDEX
  VSB - VISIBILITY
$$




USA.gov is the U.S. government's official web portal to all federal, state and local government web resources and services.